User: anonymous   Login
Location: Unspecified
(0.0000°N, 0.0000°E)
Time: 18:23:08
(UTC+00:00)
Language:

STARLINK-31241 - Orbit

View from above orbital plane
View from above orbital plane
View from above satellite
View from above satellite

Ground track
Ground track

The orbit is defined by the following mean orbital elements,

1 59045U          26145.50632123 +.00000000 +00000-0 +29098-4 0 00008
2 59045  42.9993 309.9749 0000606  97.4304 262.6616 15.27575476    09
Epoch (UTC): 25 May 2026 12:09:06
Eccentricity: 0.0000606
inclination: 42.9993°
perigee height: 483 km
apogee height: 483 km
right ascension of ascending node: 309.9749°
argument of perigee: 97.4304°
revolutions per day: 15.27575476
mean anomaly at epoch: 262.6616°

The dashed part of the orbit path shows where the satellite is in the earth's shadow,  

DLR